M I D A S
Marine Information and Data Acquisition System
Tripno 1999 of the Zeeleeuw from 2010-12-06 07:47:39 to 2010-12-06 18:22:24
Back to CruiseResearch ActivitiesStationsMapUnderway DataData graphs

EquipmentUnitsComment
TimeDGPSUTC
LatitudeDGPSDM.mWGS84
LongitudeDGPSDM.mWGS84
TemperatureSBE03/SBE38deg celciusITS90
ConductivitySBE21S/mITS90
SalinitySBE21 Practical Salinity Units
ChlorophylAChelsea fluorimeterg/lCalibrated in Aceton
Missing or incorrect values are displayed as -999
Sea surface data collected by the RV Zeeleeuw from 2010-12-06 07:35:11 to 2010-12-06 18:27:10
Time Latitude Longitude Temperature Conductivity Salinity ChlorophylA
2010-12-06 07:36:16 51°13.664 2°55.956 11.6176 0.074734 0.381513 -0.58268
2010-12-06 07:37:16 51°13.659 2°55.957 11.6173 0.07463 0.38101 -0.58268
2010-12-06 07:38:16 51°13.659 2°55.957 11.619 0.07463 0.381055 -0.58268
2010-12-06 07:39:16 51°13.66 2°55.959 11.619 0.07463 0.381099 -0.617504
2010-12-06 07:40:16 51°13.662 2°55.959 11.6186 0.07463 0.381144 -0.58268
2010-12-06 07:41:16 51°13.662 2°55.96 11.62 0.07463 0.381189 -0.547855
2010-12-06 07:42:16 51°13.662 2°55.96 11.6201 0.07463 0.381233 -0.58268
2010-12-06 07:43:16 51°13.661 2°55.96 11.6201 0.07463 0.381273 -0.547855
2010-12-06 07:44:16 51°13.66 2°55.96 11.6219 0.07463 0.381323 -0.547855
2010-12-06 07:45:20 51°13.678 2°55.902 11.6197 0.07463 0.381379 -0.58268
2010-12-06 07:46:19 51°13.69 2°55.797 11.6226 0.07463 0.381418 -0.58268
2010-12-06 07:47:17 51°13.687 2°55.739 11.6221 0.07463 0.381457 -0.58268
2010-12-06 07:48:16 51°13.696 2°55.731 11.6238 0.074525 0.380953 -0.58268
2010-12-06 07:49:16 51°13.746 2°55.695 11.6207 0.074525 0.380987 -0.58268
2010-12-06 07:50:17 51°13.87 2°55.598 11.6263 0.074525 0.381065 -0.617504
2010-12-06 07:51:20 51°14.031 2°55.483 11.6218 0.074525 0.381121 -0.547855
2010-12-06 07:52:20 51°14.191 2°55.356 11.5857 0.074525 0.381172 -0.58268
2010-12-06 07:53:19 51°14.344 2°55.212 11.354 0.074525 0.381216 -0.58268
2010-12-06 07:54:19 51°14.498 2°55.046 11.1743 0.074525 0.381273 -0.58268
2010-12-06 07:55:17 51°14.649 2°54.842 11.1699 0.074525 0.381222 -0.58268
2010-12-06 07:56:16 51°14.821 2°54.64 11.0764 0.074525 0.381351 -0.58268
2010-12-06 07:57:16 51°14.999 2°54.44 11.0439 0.074525 0.381407 -0.58268
2010-12-06 07:58:16 51°15.177 2°54.239 11.0068 0.074525 0.381463 -0.547855
2010-12-06 07:59:16 51°15.349 2°54.023 11.0102 0.074421 0.380975 -0.58268
2010-12-06 08:00:16 51°15.52 2°53.802 11.0032 0.074421 0.381026 -0.547855
2010-12-06 08:01:16 51°15.693 2°53.582 11.0035 0.074421 0.381082 -0.547855
2010-12-06 08:02:16 51°15.869 2°53.376 10.949 0.074421 0.381138 -0.547855
2010-12-06 08:03:16 51°16.048 2°53.185 10.9349 0.074421 0.381189 -0.617504
2010-12-06 08:04:16 51°16.233 2°53.007 10.9084 0.074421 0.381239 -0.547855
2010-12-06 08:05:16 51°16.424 2°52.858 10.9048 0.074421 0.381301 -0.58268
2010-12-06 08:06:16 51°16.615 2°52.713 10.8914 0.074421 0.381351 -0.547855
2010-12-06 08:07:16 51°16.809 2°52.604 10.9256 0.074421 0.381424 -0.58268
2010-12-06 08:08:16 51°17.009 2°52.587 10.9353 0.074317 0.380925 -0.547855
2010-12-06 08:09:16 51°17.208 2°52.57 10.8774 0.074317 0.380987 -0.58268
2010-12-06 08:10:16 51°17.406 2°52.496 10.9592 0.074317 0.381043 -0.547855
2010-12-06 08:11:16 51°17.604 2°52.422 10.9396 0.074317 0.381105 -0.58268
2010-12-06 08:12:16 51°17.799 2°52.345 10.9727 0.074317 0.381166 -0.58268
2010-12-06 08:13:16 51°17.995 2°52.264 10.9659 0.074317 0.381217 -0.58268
2010-12-06 08:14:16 51°18.193 2°52.183 10.9874 0.074317 0.381268 -0.58268
2010-12-06 08:15:16 51°18.39 2°52.099 11.0009 0.074317 0.38133 -0.58268
2010-12-06 08:16:16 51°18.587 2°52.015 11.023 0.074317 0.381386 -0.547855
2010-12-06 08:17:16 51°18.785 2°51.927 11.0086 0.074213 0.380902 -0.617504
2010-12-06 08:18:16 51°18.982 2°51.834 11.0583 0.074213 0.380953 -0.58268
2010-12-06 08:19:16 51°19.178 2°51.74 11.0621 0.074213 0.381015 -0.58268
2010-12-06 08:20:16 51°19.373 2°51.641 11.0638 0.074213 0.38106 -0.547855
2010-12-06 08:21:16 51°19.569 2°51.54 11.0773 0.074213 0.381111 -0.547855
2010-12-06 08:22:16 51°19.766 2°51.44 11.083 0.074213 0.381173 -0.547855
2010-12-06 08:23:16 51°19.964 2°51.345 11.0981 0.074213 0.381223 -0.58268
2010-12-06 08:24:16 51°20.163 2°51.249 11.1125 0.074213 0.38128 -0.58268
2010-12-06 08:25:16 51°20.362 2°51.152 11.1185 0.074213 0.381342 -0.58268
2010-12-06 08:26:16 51°20.563 2°51.048 11.1341 0.074213 0.381404 -0.58268
2010-12-06 08:27:16 51°20.764 2°50.942 11.145 0.074213 0.381455 -0.547855
2010-12-06 08:28:16 51°20.961 2°50.921 11.1828 0.074213 0.381511 -0.58268
2010-12-06 08:29:16 51°21.13 2°51.064 11.1931 0.074109 0.381016 -0.58268
2010-12-06 08:30:16 51°21.296 2°51.218 11.2063 0.074109 0.381066 -0.547855
2010-12-06 08:31:16 51°21.465 2°51.361 11.2264 0.074109 0.381128 -0.547855
2010-12-06 08:32:16 51°21.656 2°51.437 11.2343 0.074109 0.381174 -0.58268
2010-12-06 08:33:16 51°21.861 2°51.4 11.1848 0.074109 0.381219 -0.58268
2010-12-06 08:34:16 51°22.068 2°51.297 11.2083 0.074109 0.381258 -0.58268
2010-12-06 08:35:16 51°22.272 2°51.171 11.2162 0.074109 0.381315 -0.58268
2010-12-06 08:36:16 51°22.473 2°51.053 11.2516 0.074109 0.381388 -0.547855
2010-12-06 08:37:16 51°22.669 2°50.94 11.2632 0.074109 0.381445 -0.617504
2010-12-06 08:38:16 51°22.86 2°50.785 11.2214 0.074005 0.381022 -0.617504
2010-12-06 08:39:16 51°23.044 2°50.625 11.3004 0.074005 0.380977 -0.547855
2010-12-06 08:40:16 51°23.23 2°50.477 11.3124 0.074005 0.381 -0.617504
2010-12-06 08:41:16 51°23.416 2°50.318 11.3283 0.074005 0.381067 -0.58268
2010-12-06 08:42:16 51°23.602 2°50.159 11.359 0.074005 0.38113 -0.58268
2010-12-06 08:43:16 51°23.786 2°49.984 11.3723 0.074005 0.381186 -0.58268
2010-12-06 08:44:16 51°23.963 2°49.787 11.3788 0.074005 0.381243 -0.58268
2010-12-06 08:45:16 51°24.141 2°49.589 11.4009 0.074005 0.381305 -0.58268
2010-12-06 08:46:16 51°24.321 2°49.391 11.4074 0.074005 0.381373 -0.58268
2010-12-06 08:47:16 51°24.501 2°49.192 11.4166 0.073901 0.380876 -0.58268
2010-12-06 08:48:16 51°24.662 2°48.951 11.4214 0.073901 0.380938 -0.58268
2010-12-06 08:49:16 51°24.805 2°48.664 11.4559 0.073901 0.380972 -0.617504
2010-12-06 08:50:16 51°24.925 2°48.426 11.5332 0.073901 0.38104 -0.58268
2010-12-06 08:51:16 51°24.98 2°48.344 11.6344 0.073901 0.38112 -0.58268
2010-12-06 08:52:16 51°24.98 2°48.307 11.682 0.073901 0.381193 -0.617504
2010-12-06 08:53:16 51°24.966 2°48.269 11.7339 0.073797 0.380679 -0.58268
2010-12-06 08:54:16 51°24.949 2°48.229 11.5599 0.073797 0.380736 -0.58268
2010-12-06 08:55:16 51°24.931 2°48.187 11.603 0.073797 0.380781 -0.58268
2010-12-06 08:56:16 51°24.912 2°48.145 11.6286 0.073797 0.380838 -0.58268
2010-12-06 08:57:16 51°24.891 2°48.102 11.6264 0.073797 0.380889 -0.58268
2010-12-06 08:58:16 51°24.871 2°48.058 11.7094 0.073797 0.380951 -0.58268
2010-12-06 08:59:16 51°24.852 2°48.024 11.757 0.073797 0.381008 -0.617504
2010-12-06 09:00:16 51°24.883 2°48.091 11.8413 0.073797 0.381087 -0.58268
2010-12-06 09:01:16 51°25.022 2°48.149 11.8786 0.073693 0.380567 -0.58268
2010-12-06 09:02:16 51°25.194 2°48.179 11.8907 0.073693 0.380635 -0.617504
2010-12-06 09:03:16 51°25.364 2°48.231 11.8723 0.073693 0.380697 -0.547855
2010-12-06 09:04:16 51°25.428 2°48.324 12.0612 0.073693 0.380777 -0.58268
2010-12-06 09:05:16 51°25.415 2°48.396 12.1406 0.073693 0.380839 -0.58268
2010-12-06 09:06:16 51°25.374 2°48.447 12.2053 0.073693 0.38089 -0.58268
2010-12-06 09:07:16 51°25.317 2°48.485 12.2684 0.073693 0.380919 -0.547855
2010-12-06 09:08:16 51°25.248 2°48.492 12.3265 0.073693 0.380953 -0.58268
2010-12-06 09:09:16 51°25.173 2°48.458 12.3931 0.073589 0.380443 -0.617504
2010-12-06 09:10:16 51°25.105 2°48.392 12.4414 0.073589 0.3805 -0.58268
2010-12-06 09:11:16 51°25.049 2°48.304 12.5012 0.073589 0.380562 -0.58268
2010-12-06 09:12:16 51°25.005 2°48.201 12.2305 0.073589 0.380625 -0.58268
2010-12-06 09:13:16 51°24.973 2°48.089 12.3551 0.073589 0.380687 -0.617504
2010-12-06 09:14:16 51°24.946 2°47.975 12.3951 0.073589 0.380739 -0.58268
2010-12-06 09:15:16 51°24.92 2°47.861 12.4353 0.073589 0.380801 -0.58268
2010-12-06 09:16:16 51°24.898 2°47.745 12.4666 0.073589 0.380847 -0.58268
2010-12-06 09:17:16 51°24.878 2°47.63 12.5243 0.073589 0.380898 -0.617504
2010-12-06 09:18:16 51°24.858 2°47.516 12.5527 0.073589 0.380972 -0.58268
2010-12-06 09:19:16 51°24.839 2°47.402 12.5757 0.073589 0.381046 -0.58268
2010-12-06 09:20:16 51°24.813 2°47.292 12.62 0.073589 0.381103 -0.547855
2010-12-06 09:21:16 51°24.776 2°47.192 12.571 0.073589 0.381148 -0.58268
2010-12-06 09:22:16 51°24.732 2°47.097 12.7782 0.073485 0.380649 -0.58268
2010-12-06 09:23:16 51°24.684 2°47.004 12.8786 0.073485 0.380729 -0.58268
2010-12-06 09:24:16 51°24.638 2°46.913 12.8721 0.073485 0.380803 -0.58268
2010-12-06 09:25:16 51°24.596 2°46.83 12.9347 0.073589 0.381439 -0.58268
2010-12-06 09:26:16 51°24.552 2°46.753 12.9927 0.073485 0.380951 -0.58268
2010-12-06 09:27:16 51°24.507 2°46.679 13.0185 0.073485 0.381014 -0.58268
2010-12-06 09:28:16 51°24.463 2°46.604 12.997 0.073485 0.38106 -0.58268
2010-12-06 09:29:16 51°24.415 2°46.525 13.0406 0.073485 0.381128 -0.58268
2010-12-06 09:30:16 51°24.363 2°46.441 13.0967 0.073485 0.381197 -0.617504
2010-12-06 09:31:16 51°24.309 2°46.356 13.1476 0.073485 0.381271 -0.58268
2010-12-06 09:32:16 51°24.255 2°46.269 13.1363 0.073485 0.381334 -0.547855
2010-12-06 09:33:16 51°24.202 2°46.182 13.2344 0.073485 0.38138 -0.58268
2010-12-06 09:34:16 51°24.147 2°46.098 13.2481 0.073485 0.381443 -0.58268
2010-12-06 09:35:16 51°24.093 2°46.013 13.2567 0.073485 0.381511 -0.547855
2010-12-06 09:36:16 51°24.039 2°45.927 13.3163 0.073485 0.381574 -0.58268
2010-12-06 09:37:16 51°23.985 2°45.843 13.3462 0.073485 0.381643 -0.58268
2010-12-06 09:38:16 51°23.931 2°45.76 13.3582 0.073589 0.382264 -0.58268
2010-12-06 09:39:16 51°23.875 2°45.678 13.4251 0.073485 0.381781 -0.58268
2010-12-06 09:40:16 51°23.823 2°45.593 13.4265 0.073589 0.382413 -0.58268
2010-12-06 09:41:16 51°23.788 2°45.49 13.4423 0.073589 0.382488 -0.58268
2010-12-06 09:42:16 51°23.765 2°45.384 13.4568 0.073589 0.382557 -0.58268
2010-12-06 09:43:16 51°23.75 2°45.275 13.5204 0.073589 0.382609 -0.58268
2010-12-06 09:44:16 51°23.741 2°45.168 13.557 0.073589 0.382666 -0.58268
2010-12-06 09:45:16 51°23.741 2°45.063 13.5988 0.073589 0.382735 -0.58268
2010-12-06 09:46:16 51°23.748 2°44.962 13.6527 0.073589 0.382799 -0.58268
2010-12-06 09:47:16 51°23.763 2°44.868 13.6584 0.073589 0.382873 -0.547855
2010-12-06 09:48:16 51°23.785 2°44.782 13.6668 0.073589 0.382948 -0.58268
2010-12-06 09:49:16 51°23.817 2°44.717 13.7245 0.073589 0.383012 -0.58268
2010-12-06 09:50:16 51°23.855 2°44.684 13.7632 0.073589 0.383069 -0.58268
2010-12-06 09:51:16 51°23.877 2°44.667 13.7933 0.073589 0.383144 -0.58268
2010-12-06 09:52:16 51°23.887 2°44.651 13.8248 0.073589 0.383196 -0.58268
2010-12-06 09:53:16 51°23.892 2°44.633 13.8608 0.073693 0.38379 -0.58268
2010-12-06 09:54:16 51°23.892 2°44.612 13.8948 0.073693 0.383848 -0.58268
2010-12-06 09:55:16 51°23.889 2°44.59 13.9404 0.073693 0.383906 -0.58268
2010-12-06 09:56:16 51°23.883 2°44.567 13.9232 0.073693 0.38397 -0.547855
2010-12-06 09:57:16 51°23.883 2°44.553 14.0079 0.073693 0.384028 -0.58268
2010-12-06 09:58:16 51°23.952 2°44.619 13.8514 0.073693 0.384103 -0.58268
2010-12-06 09:59:16 51°24.063 2°44.791 13.9347 0.073693 0.384178 -0.617504
2010-12-06 10:00:16 51°24.205 2°45.004 13.948 0.073693 0.384259 -0.58268
2010-12-06 10:01:16 51°24.352 2°45.223 13.9457 0.073693 0.384341 -0.617504
2010-12-06 10:02:16 51°24.501 2°45.441 14.1257 0.073693 0.384428 -0.547855
2010-12-06 10:03:16 51°24.658 2°45.648 14.1196 0.073693 0.384492 -0.58268
2010-12-06 10:04:16 51°24.816 2°45.857 14.0619 0.073693 0.38459 -0.547855
2010-12-06 10:05:16 51°24.977 2°46.059 14.0627 0.073693 0.384678 -0.58268
2010-12-06 10:06:16 51°25.14 2°46.26 14.0829 0.073693 0.384788 -0.58268
2010-12-06 10:07:16 51°25.303 2°46.461 14.1551 0.073693 0.384887 -0.58268
2010-12-06 10:08:16 51°25.465 2°46.661 14.1836 0.073797 0.385536 -0.58268
2010-12-06 10:09:16 51°25.625 2°46.863 14.197 0.073693 0.385056 -0.58268
2010-12-06 10:10:16 51°25.786 2°47.066 14.2115 0.073797 0.385705 -0.58268
2010-12-06 10:11:16 51°25.952 2°47.256 14.227 0.073797 0.385793 -0.58268
2010-12-06 10:12:16 51°26.124 2°47.427 14.2512 0.073797 0.385886 -0.58268
2010-12-06 10:13:16 51°26.298 2°47.591 14.2612 0.073797 0.38595 -0.58268
2010-12-06 10:14:16 51°26.471 2°47.755 14.2777 0.073797 0.38605 -0.58268
2010-12-06 10:15:16 51°26.646 2°47.92 14.342 0.073797 0.386138 -0.58268
2010-12-06 10:16:16 51°26.82 2°48.086 14.3289 0.073797 0.386237 -0.58268
2010-12-06 10:17:16 51°26.995 2°48.254 14.3908 0.073797 0.386325 -0.58268
2010-12-06 10:18:16 51°27.17 2°48.422 14.4239 0.073797 0.386401 -0.617504
2010-12-06 10:19:16 51°27.347 2°48.589 14.4518 0.073797 0.386472 -0.617504
2010-12-06 10:20:16 51°27.525 2°48.754 14.4208 0.073797 0.38656 -0.617504
2010-12-06 10:21:16 51°27.704 2°48.919 14.5155 0.073797 0.386636 -0.58268
2010-12-06 10:22:16 51°27.884 2°49.087 14.503 0.073693 0.386156 -0.617504
2010-12-06 10:23:16 51°28.065 2°49.252 14.5374 0.073693 0.386232 -0.58268
2010-12-06 10:24:16 51°28.247 2°49.416 7.1183 0.073693 0.38639 -0.513031
2010-12-06 10:25:16 51°28.431 2°49.584 6.919 3.646809 34.866721 -0.304087
2010-12-06 10:26:16 51°28.615 2°49.751 6.93 3.402219 33.24209 -0.338911
2010-12-06 10:27:16 51°28.798 2°49.927 7.5868 3.397477 33.273724 -0.338911
2010-12-06 10:28:16 51°28.978 2°50.108 7.843 3.519758 33.912286 -0.304087
2010-12-06 10:29:16 51°29.158 2°50.291 7.9228 3.555182 34.117517 -0.304087
2010-12-06 10:30:16 51°29.349 2°50.448 8.012 3.569942 34.209742 -0.338911
2010-12-06 10:31:16 51°29.538 2°50.605 8.1018 3.581329 34.253597 -0.304087
2010-12-06 10:32:16 51°29.729 2°50.761 8.1674 3.59145 34.281453 -0.304087
2010-12-06 10:33:16 51°29.92 2°50.916 8.1898 3.598092 34.296703 -0.304087
2010-12-06 10:34:16 51°30.109 2°51.072 8.1415 3.600307 34.316937 -0.304087
2010-12-06 10:35:16 51°30.296 2°51.231 8.1018 3.593664 34.296834 -0.304087
2010-12-06 10:36:16 51°30.48 2°51.392 8.0724 3.588393 34.27418 -0.269263
2010-12-06 10:37:16 51°30.666 2°51.55 8.0372 3.58175 34.232857 -0.269263
2010-12-06 10:38:16 51°30.852 2°51.71 8.0055 3.576584 34.214509 -0.234439
2010-12-06 10:39:16 51°31.038 2°51.869 7.9709 3.570785 34.184518 -0.234439
2010-12-06 10:40:16 51°31.231 2°52.002 7.9426 3.553072 34.032443 -0.234439
2010-12-06 10:41:16 51°31.427 2°52.128 7.9266 3.562351 34.151634 -0.199615
2010-12-06 10:42:16 51°31.622 2°52.263 7.9051 3.558977 34.139276 -0.234439
2010-12-06 10:43:16 51°31.816 2°52.397 7.8837 3.556236 34.127139 -0.234439
2010-12-06 10:44:16 51°31.995 2°52.523 7.8677 3.552546 34.110569 -0.234439
2010-12-06 10:45:16 51°32.123 2°52.618 7.8484 3.550016 34.09985 -0.199615
2010-12-06 10:46:16 51°32.187 2°52.681 7.8374 3.547486 34.091571 -0.234439
2010-12-06 10:47:16 51°32.189 2°52.704 7.8401 3.545482 34.080765 -0.269263
2010-12-06 10:48:16 51°32.181 2°52.712 7.8406 3.544639 34.070935 -0.234439
2010-12-06 10:49:16 51°32.174 2°52.718 7.8417 3.545799 34.084146 -0.199615
2010-12-06 10:50:16 51°32.168 2°52.724 7.8401 3.545904 34.08772 -0.199615
2010-12-06 10:51:16 51°32.161 2°52.731 7.8454 3.545166 34.079831 -0.234439
2010-12-06 10:52:16 51°32.157 2°52.742 7.8399 3.545061 34.073811 -0.199615
2010-12-06 10:53:16 51°32.155 2°52.755 7.846 3.545272 34.08259 -0.234439
2010-12-06 10:54:16 51°32.159 2°52.769 7.8357 3.545693 34.082203 -0.199615
2010-12-06 10:55:16 51°32.176 2°52.782 7.8281 3.544112 34.075902 -0.199615
2010-12-06 10:56:16 51°32.201 2°52.866 7.8249 3.543269 34.076674 -0.234439
2010-12-06 10:57:16 51°32.14 2°53.032 7.8195 3.543163 34.076362 -0.234439
2010-12-06 10:58:16 51°32.021 2°53.198 7.8253 3.541582 34.066793 -0.269263
2010-12-06 10:59:16 51°31.923 2°53.397 7.8351 3.542109 34.064272 -0.234439
2010-12-06 11:00:16 51°31.852 2°53.561 7.8483 3.545166 34.084726 -0.269263
2010-12-06 11:01:16 51°31.782 2°53.676 7.8559 3.545904 34.084457 -0.269263
2010-12-06 11:02:16 51°31.731 2°53.751 7.8606 3.548751 34.105092 -0.269263
2010-12-06 11:03:16 51°31.713 2°53.78 7.8639 3.549489 34.112163 -0.269263
2010-12-06 11:04:16 51°31.692 2°53.807 7.8659 3.548329 34.097322 -0.234439
2010-12-06 11:05:16 51°31.673 2°53.851 7.868 3.549594 34.108394 -0.269263
2010-12-06 11:06:16 51°31.668 2°53.905 7.8693 3.550332 34.113016 -0.234439
2010-12-06 11:07:16 51°31.679 2°53.954 7.8682 3.550649 34.112316 -0.234439
2010-12-06 11:08:16 51°31.693 2°53.982 7.8668 3.550543 34.116901 -0.234439
2010-12-06 11:09:16 51°31.699 2°54.003 7.864 3.5497 34.108704 -0.269263
2010-12-06 11:10:16 51°31.704 2°54.02 7.8593 3.548856 34.104586 -0.234439
2010-12-06 11:11:16 51°31.708 2°54.039 7.8551 3.548435 34.104975 -0.269263
2010-12-06 11:12:16 51°31.735 2°54.121 7.8569 3.546748 34.086131 -0.199615
2010-12-06 11:13:16 51°31.664 2°54.285 7.8622 3.546748 34.090209 -0.269263
2010-12-06 11:14:16 51°31.496 2°54.455 7.8784 3.549278 34.104198 -0.234439
2010-12-06 11:15:16 51°31.312 2°54.602 7.8903 3.552125 34.121558 -0.269263
2010-12-06 11:16:16 51°31.134 2°54.767 7.9042 3.554022 34.134487 -0.234439
2010-12-06 11:17:16 51°31.015 2°54.815 7.9189 3.557396 34.149302 -0.234439
2010-12-06 11:18:16 51°30.965 2°54.807 7.9268 3.559083 34.158336 -0.269263
2010-12-06 11:19:16 51°30.931 2°54.821 7.9346 3.561192 34.1735 -0.234439
2010-12-06 11:20:16 51°30.907 2°54.849 7.9367 3.562246 34.181488 -0.269263
2010-12-06 11:21:16 51°30.888 2°54.883 7.9401 3.563195 34.186718 -0.269263
2010-12-06 11:22:16 51°30.869 2°54.929 7.9446 3.563827 34.190204 -0.269263
2010-12-06 11:23:16 51°30.849 2°55.102 7.9559 3.564144 34.193579 -0.269263
2010-12-06 11:24:16 51°30.945 2°55.349 7.9753 3.566569 34.202314 -0.304087
2010-12-06 11:25:16 51°31.11 2°55.576 7.9799 3.569732 34.21728 -0.269263
2010-12-06 11:26:16 51°31.279 2°55.798 7.9678 3.569942 34.217897 -0.269263
2010-12-06 11:27:16 51°31.45 2°56.03 7.9644 3.568361 34.208376 -0.269263
2010-12-06 11:28:16 51°31.623 2°56.271 7.9637 3.56815 34.211022 -0.269263
2010-12-06 11:29:16 51°31.799 2°56.505 7.963 3.567201 34.200087 -0.304087
2010-12-06 11:30:16 51°31.962 2°56.748 7.9513 3.567201 34.201719 -0.304087
2010-12-06 11:31:16 51°32.039 2°56.897 7.9435 3.565936 34.198829 -0.269263
2010-12-06 11:32:16 51°32.077 2°56.945 7.9391 3.564355 34.192565 -0.269263
2010-12-06 11:33:16 51°32.105 2°56.961 7.9378 3.563722 34.189079 -0.269263
2010-12-06 11:34:16 51°32.122 2°56.958 7.9347 3.563722 34.192343 -0.304087
2010-12-06 11:35:16 51°32.124 2°56.947 7.9346 3.562984 34.186916 -0.304087
2010-12-06 11:36:16 51°32.113 2°56.943 7.9267 3.562773 34.187114 -0.269263
2010-12-06 11:37:16 51°32.094 2°56.954 7.9297 3.562457 34.187003 -0.269263
2010-12-06 11:38:16 51°32.068 2°56.975 7.9312 3.563089 34.192938 -0.304087
2010-12-06 11:39:16 51°32.041 2°56.912 7.9383 3.563089 34.188857 -0.304087
2010-12-06 11:40:16 51°32.132 2°56.763 7.943 3.564249 34.192256 -0.269263
2010-12-06 11:41:16 51°32.246 2°56.567 7.9303 3.563827 34.187756 -0.304087
2010-12-06 11:42:16 51°32.353 2°56.355 7.9113 3.561086 34.172375 -0.304087
2010-12-06 11:43:16 51°32.41 2°56.209 7.8954 3.558661 34.161993 -0.304087
2010-12-06 11:44:16 51°32.454 2°56.147 7.8822 3.555815 34.144653 -0.304087
2010-12-06 11:45:16 51°32.478 2°56.112 7.8647 3.553179 34.130373 -0.269263
2010-12-06 11:46:16 51°32.491 2°56.093 7.8602 3.550438 34.118222 -0.304087
2010-12-06 11:47:16 51°32.5 2°56.083 7.856 3.549805 34.113911 -0.304087
2010-12-06 11:48:15 51°32.505 2°56.079 7.8507 3.548329 34.103848 -0.269263
2010-12-06 11:49:16 51°32.508 2°56.077 7.8525 3.547591 34.10004 -0.304087
2010-12-06 11:50:16 51°32.508 2°56.078 7.8549 3.548013 34.1021 -0.234439
2010-12-06 11:51:16 51°32.508 2°56.087 7.8568 3.547064 34.091143 -0.269263
2010-12-06 11:52:16 51°32.509 2°56.102 7.8506 3.548329 34.104664 -0.269263
2010-12-06 11:53:15 51°32.512 2°56.12 7.8472 3.547064 34.096037 -0.234439
2010-12-06 11:54:16 51°32.51 2°56.116 7.8458 3.546853 34.097047 -0.269263
2010-12-06 11:55:15 51°32.53 2°55.998 7.8347 3.546431 34.094987 -0.269263
2010-12-06 11:56:16 51°32.617 2°55.8 7.812 3.543163 34.07473 -0.269263
2010-12-06 11:57:16 51°32.721 2°55.62 7.8007 3.539473 34.051582 -0.304087
2010-12-06 11:58:16 51°32.753 2°55.521 7.7917 3.537154 34.039821 -0.234439
2010-12-06 11:59:16 51°32.755 2°55.486 7.7953 3.536205 34.035379 -0.269263
2010-12-06 12:00:16 51°32.753 2°55.474 7.797 3.535889 34.030363 -0.269263
2010-12-06 12:01:16 51°32.751 2°55.475 7.7971 3.536416 34.034372 -0.269263
2010-12-06 12:02:16 51°32.752 2°55.482 7.7991 3.536837 34.036437 -0.269263
2010-12-06 12:03:16 51°32.754 2°55.493 7.8032 3.537154 34.039005 -0.234439
2010-12-06 12:04:15 51°32.758 2°55.506 7.8038 3.537154 34.036558 -0.269263
2010-12-06 12:05:16 51°32.755 2°55.459 7.7989 3.537786 34.044958 -0.269263
2010-12-06 12:06:15 51°32.829 2°55.335 7.7961 3.53747 34.041574 -0.269263
2010-12-06 12:07:16 51°33.001 2°55.178 7.7863 3.536521 34.037132 -0.304087
2010-12-06 12:08:16 51°33.212 2°55.089 7.7896 3.535151 34.026544 -0.269263
2010-12-06 12:09:16 51°33.392 2°55.317 7.7898 3.535467 34.020957 -0.269263
2010-12-06 12:10:16 51°33.489 2°55.677 7.775 3.535256 34.026041 -0.269263
2010-12-06 12:11:16 51°33.571 2°56.049 7.7623 3.532304 34.011576 -0.304087
2010-12-06 12:12:16 51°33.652 2°56.423 7.7539 3.529668 33.995593 -0.304087
2010-12-06 12:13:15 51°33.731 2°56.789 7.7508 3.527982 33.984871 -0.304087
2010-12-06 12:14:16 51°33.812 2°57.168 7.7486 3.527243 33.977783 -0.269263
2010-12-06 12:15:15 51°33.89 2°57.538 7.743 3.526084 33.970256 -0.269263
2010-12-06 12:16:16 51°33.971 2°57.917 7.7368 3.525135 33.96254 -0.269263
2010-12-06 12:17:15 51°34.048 2°58.284 7.7314 3.523764 33.954382 -0.234439
2010-12-06 12:18:16 51°34.128 2°58.664 7.7166 3.522605 33.950112 -0.269263
2010-12-06 12:19:16 51°34.204 2°58.975 7.7021 3.520285 33.939121 -0.269263
2010-12-06 12:20:15 51°34.313 2°59.073 7.6962 3.518072 33.931702 -0.269263
2010-12-06 12:21:16 51°34.45 2°59.106 7.6939 3.517334 33.926236 -0.304087
2010-12-06 12:22:15 51°34.525 2°59.01 7.7024 3.516701 33.923532 -0.269263
2010-12-06 12:23:16 51°34.497 2°58.904 7.7039 3.504577 33.787066 -0.304087
2010-12-06 12:24:15 51°34.464 2°58.781 7.7043 3.51902 33.938611 -0.269263
2010-12-06 12:25:16 51°34.455 2°58.684 7.7047 3.519231 33.940056 -0.269263
2010-12-06 12:26:16 51°34.453 2°58.609 7.7089 3.519442 33.940684 -0.269263
2010-12-06 12:27:16 51°34.462 2°58.53 7.712 3.52018 33.945332 -0.234439
2010-12-06 12:28:16 51°34.482 2°58.448 7.7134 3.520496 33.946275 -0.269263
2010-12-06 12:29:16 51°34.508 2°58.364 7.7199 3.520918 33.949164 -0.269263
2010-12-06 12:30:16 51°34.547 2°58.289 7.7255 3.521867 33.952807 -0.269263
2010-12-06 12:31:15 51°34.593 2°58.222 7.7353 3.522816 33.95808 -0.269263
2010-12-06 12:32:16 51°34.647 2°58.161 7.7518 3.524186 33.962977 -0.269263
2010-12-06 12:33:15 51°34.708 2°58.111 7.7532 3.526822 33.977345 -0.269263
2010-12-06 12:34:16 51°34.779 2°58.08 7.7846 3.528192 33.984682 -0.304087
2010-12-06 12:35:16 51°34.857 2°58.076 7.7928 3.533253 34.009498 -0.269263
2010-12-06 12:36:16 51°34.938 2°58.105 7.8209 3.533885 34.013821 -0.269263
2010-12-06 12:37:15 51°35.012 2°58.17 7.8254 3.53884 34.031771 -0.269263
2010-12-06 12:38:15 51°35.071 2°58.272 7.8394 3.53884 34.032586 -0.269263
2010-12-06 12:39:16 51°35.104 2°58.4 7.8471 3.542109 34.044707 -0.304087
2010-12-06 12:40:15 51°35.109 2°58.524 7.8718 3.542741 34.046579 -0.269263
2010-12-06 12:41:16 51°35.1 2°58.649 7.8282 3.544744 34.059836 -0.269263
2010-12-06 12:42:15 51°35.094 2°58.775 7.8023 3.539157 34.035968 -0.269263
2010-12-06 12:43:16 51°35.089 2°58.903 7.8047 3.534623 34.011934 -0.269263
2010-12-06 12:44:15 51°35.071 2°59.015 7.7925 3.534729 34.012246 -0.269263
2010-12-06 12:45:16 51°35.039 2°59.109 7.7913 3.533147 34.005108 -0.269263
2010-12-06 12:46:15 51°35.004 2°59.199 7.7874 3.532409 34.003733 -0.304087
2010-12-06 12:47:15 51°34.972 2°59.297 7.7617 3.531777 34.00104 -0.269263
2010-12-06 12:48:16 51°34.941 2°59.398 7.7344 3.528087 33.985185 -0.269263
2010-12-06 12:49:16 51°34.911 2°59.498 7.7226 3.524502 33.967997 -0.234439
2010-12-06 12:50:16 51°34.884 2°59.599 7.7164 3.522499 33.955507 -0.269263
2010-12-06 12:51:16 51°34.857 2°59.703 7.7061 3.521234 33.94929 -0.304087
2010-12-06 12:52:15 51°34.834 2°59.808 7.7012 3.519864 33.94031 -0.269263
2010-12-06 12:53:15 51°34.813 2°59.917 7.6973 3.518704 33.936036 -0.234439
2010-12-06 12:54:16 51°34.804 3°0.036 7.6951 3.517966 33.929756 -0.234439
2010-12-06 12:55:16 51°34.812 3°0.16 7.6952 3.518177 33.932832 -0.234439
2010-12-06 12:56:15 51°34.842 3°0.279 7.6945 3.518072 33.932517 -0.234439
2010-12-06 12:57:16 51°34.892 3°0.392 7.6911 3.517334 33.927052 -0.234439
2010-12-06 12:58:16 51°34.952 3°0.478 7.6834 3.516385 33.920141 -0.234439
2010-12-06 12:59:16 51°35.017 3°0.55 7.682 3.515331 33.917808 -0.234439
2010-12-06 13:00:15 51°35.08 3°0.627 7.682 3.514593 33.909078 -0.269263
2010-12-06 13:01:16 51°35.139 3°0.715 7.6808 3.51512 33.914731 -0.199615
2010-12-06 13:02:15 51°35.185 3°0.814 7.6776 3.514909 33.915733 -0.269263
2010-12-06 13:03:16 51°35.213 3°0.927 7.6771 3.514698 33.914287 -0.269263
2010-12-06 13:04:15 51°35.221 3°1.037 7.6736 3.514276 33.911396 -0.269263
2010-12-06 13:05:16 51°35.213 3°1.142 7.6696 3.513749 33.909005 -0.269263
2010-12-06 13:06:16 51°35.198 3°1.241 7.6624 3.5128 33.903721 -0.269263
2010-12-06 13:07:15 51°35.179 3°1.33 7.6542 3.511852 33.900884 -0.234439
2010-12-06 13:08:16 51°35.15 3°1.403 7.6509 3.510586 33.892204 -0.234439
2010-12-06 13:09:16 51°35.116 3°1.444 7.6484 3.509532 33.884154 -0.234439
2010-12-06 13:10:16 51°35.082 3°1.454 7.6489 3.509321 33.885155 -0.234439
2010-12-06 13:11:15 51°35.054 3°1.429 7.6472 3.509321 33.885155 -0.269263
2010-12-06 13:12:16 51°35.02 3°1.332 7.6626 3.5089 33.878998 -0.199615
2010-12-06 13:13:15 51°34.981 3°1.263 7.6691 3.511324 33.891965 -0.234439
2010-12-06 13:14:15 51°34.953 3°1.254 7.6735 3.513117 33.907114 -0.234439
2010-12-06 13:15:16 51°34.889 3°1.187 7.6824 3.512589 33.894119 -0.234439
2010-12-06 13:16:15 51°34.815 3°0.966 7.6987 3.51533 33.91373 -0.234439
2010-12-06 13:17:16 51°34.734 3°0.717 7.7116 3.518704 33.934404 -0.234439
2010-12-06 13:18:15 51°34.658 3°0.479 7.7252 3.520496 33.940565 -0.269263
2010-12-06 13:19:15 51°34.616 3°0.336 7.7311 3.522183 33.948855 -0.269263
2010-12-06 13:20:15 51°34.596 3°0.294 7.736 3.523975 33.963981 -0.199615
2010-12-06 13:21:15 51°34.594 3°0.298 7.738 3.525557 33.976845 -0.234439
2010-12-06 13:22:15 51°34.599 3°0.306 7.7379 3.525768 33.97584 -0.304087
2010-12-06 13:23:16 51°34.607 3°0.317 7.7426 3.525978 33.978099 -0.269263
2010-12-06 13:24:16 51°34.617 3°0.329 7.7419 3.526611 33.97998 -0.234439
2010-12-06 13:25:15 51°34.629 3°0.344 7.7453 3.526927 33.984184 -0.269263
2010-12-06 13:26:16 51°34.644 3°0.359 7.7455 3.526716 33.980294 -0.269263
2010-12-06 13:27:15 51°34.658 3°0.372 7.7455 3.527665 33.988826 -0.269263
2010-12-06 13:28:16 51°34.666 3°0.293 7.7474 3.527349 33.986254 -0.234439
2010-12-06 13:29:15 51°34.684 3°0.064 7.7556 3.52756 33.985249 -0.234439
2010-12-06 13:30:15 51°34.73 2°59.75 7.7628 3.529141 33.99158 -0.234439
2010-12-06 13:31:16 51°34.798 2°59.427 7.7589 3.529668 33.994778 -0.269263
2010-12-06 13:32:15 51°34.866 2°59.119 7.7563 3.528509 33.985622 -0.199615
2010-12-06 13:33:16 51°34.951 2°58.804 7.7603 3.527981 33.980793 -0.199615
2010-12-06 13:34:15 51°35.035 2°58.501 7.7533 3.528719 33.987065 -0.234439
2010-12-06 13:35:15 51°35.118 2°58.192 7.7721 3.52756 33.981171 -0.164791
2010-12-06 13:36:15 51°35.201 2°57.884 7.8539 3.532515 34.005677 -0.199615
2010-12-06 13:37:16 51°35.285 2°57.572 7.935 3.545482 34.062832 -0.164791
2010-12-06 13:38:15 51°35.366 2°57.271 8.0225 3.556763 34.107517 -0.199615
2010-12-06 13:39:15 51°35.448 2°56.965 8.0683 3.568887 34.157806 -0.199615
2010-12-06 13:40:15 51°35.531 2°56.658 8.1887 3.577955 34.206318 -0.199615
2010-12-06 13:41:15 51°35.616 2°56.354 8.2981 3.597354 34.281573 -0.199615
2010-12-06 13:42:16 51°35.701 2°56.047 8.31 3.613064 34.355521 -0.234439
2010-12-06 13:43:15 51°35.785 2°55.752 8.3727 3.6157 34.37287 -0.199615
2010-12-06 13:44:16 51°35.871 2°55.45 8.3652 3.621183 34.392752 -0.199615
2010-12-06 13:45:15 51°35.954 2°55.156 8.4024 3.625084 34.413722 -0.234439
2010-12-06 13:46:16 51°36.042 2°54.853 8.4175 3.626982 34.422428 -0.199615
2010-12-06 13:47:15 51°36.123 2°54.558 8.6168 3.638686 34.473066 -0.199615
2010-12-06 13:48:16 51°36.21 2°54.254 8.7294 3.660407 34.548927 -0.234439
2010-12-06 13:49:15 51°36.294 2°53.957 8.8451 3.675591 34.589732 -0.199615
2010-12-06 13:50:15 51°36.378 2°53.653 8.9194 3.687717 34.620126 -0.199615
2010-12-06 13:51:15 51°36.465 2°53.345 8.9685 3.697207 34.655023 -0.234439
2010-12-06 13:52:15 51°36.551 2°53.036 9.0063 3.703218 34.672004 -0.199615
2010-12-06 13:53:15 51°36.634 2°52.724 9.0392 3.708701 34.690681 -0.234439
2010-12-06 13:54:15 51°36.704 2°52.406 9.0668 3.712392 34.698679 -0.199615
2010-12-06 13:55:15 51°36.774 2°52.088 9.084 3.716082 34.709873 -0.199615
2010-12-06 13:56:15 51°36.842 2°51.77 9.1046 3.718824 34.720788 -0.199615
2010-12-06 13:57:15 51°36.913 2°51.454 9.128 3.72125 34.725208 -0.164791
2010-12-06 13:58:15 51°36.979 2°51.136 9.1495 3.722937 34.721957 -0.199615
2010-12-06 13:59:15 51°37.047 2°50.819 9.1648 3.725151 34.723389 -0.234439
2010-12-06 14:00:15 51°37.115 2°50.501 9.1592 3.726416 34.726147 -0.199615
2010-12-06 14:01:15 51°37.186 2°50.185 9.1504 3.726944 34.738011 -0.234439
2010-12-06 14:02:15 51°37.257 2°49.871 9.15 3.726733 34.742213 -0.199615
2010-12-06 14:03:15 51°37.327 2°49.556 9.1671 3.726838 34.738514 -0.199615
2010-12-06 14:04:15 51°37.395 2°49.239 9.2027 3.729475 34.74911 -0.234439
2010-12-06 14:05:15 51°37.463 2°48.922 9.2613 3.734325 34.762714 -0.199615
2010-12-06 14:06:15 51°37.531 2°48.604 9.3557 3.743711 34.798559 -0.269263
2010-12-06 14:07:15 51°37.607 2°48.29 9.4737 3.753729 34.807438 -0.199615
2010-12-06 14:08:16 51°37.704 2°47.983 9.5208 3.767016 34.841312 -0.234439
2010-12-06 14:09:15 51°37.8 2°47.691 9.5369 3.771867 34.852435 -0.269263
2010-12-06 14:10:15 51°37.907 2°47.405 9.543 3.772183 34.842222 -0.199615
2010-12-06 14:11:15 51°38.025 2°47.124 9.5459 3.773027 34.842194 -0.234439
2010-12-06 14:12:15 51°38.153 2°46.847 9.5488 3.773133 34.840904 -0.304087
2010-12-06 14:13:15 51°38.282 2°46.57 9.5543 3.773449 34.839409 -0.269263
2010-12-06 14:14:15 51°38.431 2°46.308 9.5665 3.773343 34.832784 -0.234439
2010-12-06 14:15:15 51°38.605 2°46.075 9.5852 3.774925 34.834815 -0.199615
2010-12-06 14:16:15 51°38.789 2°45.857 9.5947 3.777034 34.839895 -0.234439
2010-12-06 14:17:15 51°38.987 2°45.665 9.5975 3.778616 34.84825 -0.234439
2010-12-06 14:18:16 51°39.212 2°45.529 9.5892 3.779565 34.857216 -0.234439
2010-12-06 14:19:15 51°39.43 2°45.401 9.5883 3.779566 34.863545 -0.234439
2010-12-06 14:20:16 51°39.653 2°45.267 9.5864 3.780304 34.871135 -0.269263
2010-12-06 14:21:15 51°39.869 2°45.135 9.5751 3.778933 34.861787 -0.269263
2010-12-06 14:22:16 51°40.1 2°45.023 9.5591 3.777984 34.861523 -0.234439
2010-12-06 14:23:15 51°40.328 2°44.933 9.5504 3.776613 34.860087 -0.234439
2010-12-06 14:24:15 51°40.563 2°44.854 9.5389 3.775769 34.864871 -0.269263
2010-12-06 14:25:15 51°40.798 2°44.773 9.5251 3.774187 34.858096 -0.234439
2010-12-06 14:26:15 51°41.029 2°44.691 9.5109 3.773766 34.865642 -0.234439
2010-12-06 14:27:16 51°41.265 2°44.607 9.4947 3.771656 34.858985 -0.199615
2010-12-06 14:28:15 51°41.495 2°44.53 9.4802 3.768809 34.844717 -0.199615
2010-12-06 14:29:16 51°41.734 2°44.463 9.4674 3.767333 34.84378 -0.234439
2010-12-06 14:30:15 51°41.967 2°44.4 9.464 3.765434 34.832146 -0.234439
2010-12-06 14:31:16 51°42.21 2°44.376 9.4669 3.764063 34.821978 -0.199615
2010-12-06 14:32:15 51°42.45 2°44.39 9.4736 3.763536 34.813369 -0.234439
2010-12-06 14:33:15 51°42.693 2°44.401 9.4793 3.76438 34.814137 -0.199615
2010-12-06 14:34:15 51°42.931 2°44.41 9.4947 3.765751 34.820338 -0.199615
2010-12-06 14:35:15 51°43.064 2°44.385 9.5027 3.767332 34.824748 -0.199615
2010-12-06 14:36:16 51°43.121 2°44.321 9.5071 3.95846 36.67327 -0.234439
2010-12-06 14:37:15 51°43.156 2°44.216 9.5164 3.767649 34.824045 -0.199615
2010-12-06 14:38:16 51°43.208 2°44.103 9.5265 3.768281 34.818679 -0.234439
2010-12-06 14:39:15 51°43.275 2°44.043 9.5368 3.768492 34.810557 -0.234439
2010-12-06 14:40:16 51°43.346 2°44.016 9.5391 3.769863 34.816755 -0.199615
2010-12-06 14:41:15 51°43.412 2°43.994 9.5444 3.770707 34.82069 -0.234439
2010-12-06 14:42:16 51°43.48 2°43.976 9.5554 3.771445 34.818791 -0.199615
2010-12-06 14:43:16 51°43.548 2°43.969 9.5578 3.7725 34.824895 -0.234439
2010-12-06 14:44:16 51°43.617 2°43.976 9.5599 3.773027 34.827946 -0.199615
2010-12-06 14:45:16 51°43.684 2°43.98 9.5655 3.773238 34.825369 -0.234439
2010-12-06 14:46:16 51°43.752 2°43.959 9.5646 3.773871 34.827923 -0.234439
2010-12-06 14:47:16 51°43.814 2°43.9 9.5698 3.77366 34.828917 -0.199615
2010-12-06 14:48:16 51°43.882 2°43.837 9.5705 3.773976 34.826635 -0.234439
2010-12-06 14:49:16 51°43.951 2°43.773 9.5729 3.774609 34.831561 -0.199615
2010-12-06 14:50:15 51°44.018 2°43.709 9.5698 3.775136 34.835402 -0.234439
2010-12-06 14:51:16 51°44.085 2°43.64 9.5725 3.775242 34.83886 -0.199615
2010-12-06 14:52:15 51°44.153 2°43.579 9.5742 3.776191 34.846249 -0.234439
2010-12-06 14:53:16 51°44.219 2°43.518 9.5796 3.776085 34.844373 -0.199615
2010-12-06 14:54:16 51°44.284 2°43.46 9.5836 3.776613 34.842676 -0.234439
2010-12-06 14:55:16 51°44.349 2°43.403 9.5962 3.777773 34.850649 -0.234439
2010-12-06 14:56:15 51°44.413 2°43.349 9.6053 3.779354 34.855048 -0.234439
2010-12-06 14:57:15 51°44.477 2°43.293 9.6156 3.781042 34.864483 -0.269263
2010-12-06 14:58:16 51°44.542 2°43.233 9.6218 3.781569 34.859623 -0.234439
2010-12-06 14:59:15 51°44.604 2°43.176 9.6294 3.782096 34.861088 -0.269263
2010-12-06 15:00:15 51°44.667 2°43.114 9.6373 3.783256 34.864312 -0.234439
2010-12-06 15:01:15 51°44.729 2°43.054 9.6468 3.784522 34.868617 -0.234439
2010-12-06 15:02:15 51°44.792 2°42.995 9.6552 3.785155 34.866424 -0.269263
2010-12-06 15:03:15 51°44.855 2°42.936 9.6591 3.786209 34.873302 -0.234439
2010-12-06 15:04:15 51°44.918 2°42.879 9.6682 3.786526 34.869442 -0.269263
2010-12-06 15:05:15 51°44.978 2°42.819 9.6702 3.787053 34.866958 -0.234439
2010-12-06 15:06:15 51°45.041 2°42.76 9.6752 3.787791 34.874535 -0.234439
2010-12-06 15:07:16 51°45.107 2°42.702 9.6811 3.789162 34.879919 -0.234439
2010-12-06 15:08:15 51°45.166 2°42.642 9.6811 3.788951 34.872229 -0.269263
2010-12-06 15:09:16 51°45.238 2°42.603 9.6886 3.789795 34.879306 -0.269263
2010-12-06 15:10:15 51°45.316 2°42.605 9.6866 3.790111 34.884131 -0.234439
2010-12-06 15:11:15 51°45.391 2°42.646 9.6922 3.790111 34.878605 -0.234439
2010-12-06 15:12:15 51°45.462 2°42.704 9.6938 3.790111 34.879394 -0.269263
2010-12-06 15:13:15 51°45.52 2°42.767 9.6962 3.7899 34.872496 -0.234439
2010-12-06 15:14:16 51°45.569 2°42.839 9.6954 3.790006 34.872 -0.269263
2010-12-06 15:15:15 51°45.603 2°42.924 9.6942 3.790849 34.879075 -0.234439
2010-12-06 15:16:16 51°45.618 2°43.021 9.6941 3.790639 34.880068 -0.269263
2010-12-06 15:17:15 51°45.611 2°43.112 9.6883 3.789795 34.869047 -0.234439
2010-12-06 15:18:16 51°45.582 2°43.179 9.6811 3.789057 34.871732 -0.234439
2010-12-06 15:19:15 51°45.558 2°43.202 9.6779 3.788213 34.868601 -0.234439
2010-12-06 15:20:16 51°45.509 2°43.172 9.6808 3.788635 34.873718 -0.269263
2010-12-06 15:21:15 51°45.477 2°43.05 9.6769 3.788318 34.868893 -0.234439
2010-12-06 15:22:15 51°45.498 2°42.969 9.6798 3.789057 34.881205 -0.234439
2010-12-06 15:23:15 51°45.53 2°42.921 9.6806 3.789373 34.881293 -0.234439
2010-12-06 15:24:15 51°45.558 2°42.844 9.6886 3.789795 34.884043 -0.234439
2010-12-06 15:25:15 51°45.567 2°42.738 9.682 3.790428 34.881062 -0.199615
2010-12-06 15:26:15 51°45.568 2°42.688 9.6904 3.789795 34.880885 -0.234439
2010-12-06 15:27:15 51°45.509 2°42.628 9.6881 3.790428 34.88264 -0.269263
2010-12-06 15:28:15 51°45.397 2°42.469 9.6941 3.790533 34.879776 -0.269263
2010-12-06 15:29:15 51°45.248 2°42.344 9.6974 3.790322 34.876823 -0.269263
2010-12-06 15:30:15 51°45.129 2°42.219 9.6953 3.791377 34.881327 -0.234439
2010-12-06 15:31:15 51°45.067 2°42.131 9.6892 3.791799 34.8896 -0.269263
2010-12-06 15:32:16 51°45.02 2°42.06 9.6896 3.790217 34.878898 -0.234439
2010-12-06 15:33:15 51°45.007 2°42.054 9.6833 3.790955 34.88726 -0.269263
2010-12-06 15:34:15 51°45.01 2°42.059 9.6874 3.789478 34.877639 -0.234439
2010-12-06 15:35:15 51°45.019 2°42.065 9.6901 3.790217 34.883634 -0.269263
2010-12-06 15:36:16 51°45.033 2°42.071 9.6951 3.790955 34.884103 -0.199615
2010-12-06 15:37:15 51°45.047 2°42.074 9.6948 3.791904 34.889892 -0.269263
2010-12-06 15:38:15 51°45.065 2°42.076 9.6943 3.791377 34.886062 -0.269263
2010-12-06 15:39:15 51°45.081 2°42.075 9.6972 3.79106 34.881239 -0.234439
2010-12-06 15:40:15 51°45.019 2°42.077 9.6857 3.791166 34.885477 -0.269263
2010-12-06 15:41:15 51°44.874 2°42.126 9.6828 3.790111 34.877816 -0.269263
2010-12-06 15:42:15 51°44.691 2°42.184 9.6775 3.789373 34.875767 -0.269263
2010-12-06 15:43:15 51°44.498 2°42.243 9.6614 3.789268 34.881001 -0.269263
2010-12-06 15:44:15 51°44.306 2°42.306 9.6495 3.787791 34.880063 -0.234439
2010-12-06 15:45:15 51°44.113 2°42.366 9.6326 3.78642 34.884161 -0.269263
2010-12-06 15:46:15 51°43.921 2°42.432 9.6162 3.785893 34.889023 -0.269263
2010-12-06 15:47:15 51°43.725 2°42.492 9.6078 3.783995 34.882966 -0.234439
2010-12-06 15:48:15 51°43.531 2°42.551 9.5942 3.782413 34.878575 -0.234439
2010-12-06 15:49:16 51°43.335 2°42.612 9.5758 3.780304 34.874301 -0.269263
2010-12-06 15:50:16 51°43.14 2°42.669 9.5637 3.778195 34.865276 -0.234439
2010-12-06 15:51:15 51°42.945 2°42.728 9.5575 3.775769 34.858533 -0.234439
2010-12-06 15:52:15 51°42.748 2°42.789 9.5521 3.774504 34.855014 -0.234439
2010-12-06 15:53:16 51°42.551 2°42.849 9.5356 3.772922 34.845861 -0.234439
2010-12-06 15:54:16 51°42.355 2°42.907 9.5249 3.771129 34.841663 -0.269263
2010-12-06 15:55:15 51°42.161 2°42.964 9.5215 3.769969 34.840811 -0.199615
2010-12-06 15:56:15 51°41.964 2°43.023 9.5097 3.76902 34.838168 -0.234439
2010-12-06 15:57:15 51°41.769 2°43.083 9.506 3.768809 34.840752 -0.269263
2010-12-06 15:58:16 51°41.568 2°43.142 9.5011 3.768809 34.846304 -0.234439
2010-12-06 15:59:15 51°41.374 2°43.199 9.5013 3.768704 34.85077 -0.199615
2010-12-06 16:00:16 51°41.175 2°43.263 9.5128 3.769336 34.850944 -0.234439
2010-12-06 16:01:15 51°40.98 2°43.312 9.5134 3.770285 34.858345 -0.234439
2010-12-06 16:02:15 51°40.778 2°43.362 9.5125 3.770918 34.862485 -0.199615
2010-12-06 16:03:16 51°40.576 2°43.419 9.5191 3.771551 34.865831 -0.234439
2010-12-06 16:04:15 51°40.38 2°43.475 9.526 3.771129 34.859898 -0.234439
2010-12-06 16:05:16 51°40.178 2°43.533 9.5213 3.772395 34.87135 -0.199615
2010-12-06 16:06:15 51°39.984 2°43.59 9.5245 3.773133 34.872607 -0.269263
2010-12-06 16:07:15 51°39.789 2°43.677 9.5405 3.773449 34.875073 -0.234439
2010-12-06 16:08:15 51°39.596 2°43.766 9.5457 3.774609 34.875123 -0.234439
2010-12-06 16:09:16 51°39.397 2°43.855 9.565 3.775664 34.877259 -0.269263
2010-12-06 16:10:16 51°39.201 2°43.939 9.5806 3.777457 34.879067 -0.269263
2010-12-06 16:11:16 51°39.005 2°44.026 9.6031 3.778827 34.874952 -0.269263
2010-12-06 16:12:16 51°38.81 2°44.112 9.615 3.780937 34.87685 -0.234439
2010-12-06 16:13:15 51°38.62 2°44.193 9.6216 3.78178 34.875236 -0.269263
2010-12-06 16:14:15 51°38.424 2°44.276 9.627 3.781147 34.862404 -0.269263
2010-12-06 16:15:15 51°38.231 2°44.36 9.6033 3.781147 34.860032 -0.234439
2010-12-06 16:16:16 51°38.033 2°44.448 9.5558 3.777878 34.853316 -0.234439
2010-12-06 16:17:15 51°37.842 2°44.533 9.5217 3.772289 34.837763 -0.269263
2010-12-06 16:18:16 51°37.642 2°44.617 9.5022 3.768703 34.829361 -0.269263
2010-12-06 16:19:16 51°37.448 2°44.703 9.4918 3.767227 34.830796 -0.234439
2010-12-06 16:20:15 51°37.257 2°44.785 9.4793 3.764063 34.812462 -0.234439
2010-12-06 16:21:15 51°37.06 2°44.873 9.4734 3.761954 34.797855 -0.269263
2010-12-06 16:22:16 51°36.86 2°44.958 9.4599 3.760583 34.794026 -0.234439
2010-12-06 16:23:16 51°36.662 2°45.04 9.4457 3.759634 34.798513 -0.269263
2010-12-06 16:24:15 51°36.466 2°45.118 9.4384 3.757525 34.791828 -0.234439
2010-12-06 16:25:16 51°36.264 2°45.202 9.4108 3.757841 34.809383 -0.269263
2010-12-06 16:26:15 51°36.067 2°45.285 9.3935 3.755311 34.799933 -0.269263
2010-12-06 16:27:15 51°35.868 2°45.368 9.3753 3.754467 34.807114 -0.234439
2010-12-06 16:28:15 51°35.668 2°45.447 9.3542 3.752674 34.802107 -0.269263
2010-12-06 16:29:15 51°35.467 2°45.524 9.3381 3.75046 34.801489 -0.234439
2010-12-06 16:30:16 51°35.263 2°45.6 9.3134 3.748562 34.802554 -0.234439
2010-12-06 16:31:15 51°35.065 2°45.672 9.2959 3.746558 34.801735 -0.234439
2010-12-06 16:32:16 51°34.861 2°45.742 9.2904 3.744554 34.79454 -0.269263
2010-12-06 16:33:15 51°34.664 2°45.818 9.273 3.744027 34.797052 -0.234439
2010-12-06 16:34:16 51°34.458 2°45.899 9.2595 3.741285 34.783802 -0.199615
2010-12-06 16:35:15 51°34.26 2°45.978 9.2365 3.739598 34.784663 -0.234439
2010-12-06 16:36:16 51°34.054 2°46.061 9.2258 3.737806 34.786031 -0.234439
2010-12-06 16:37:15 51°33.855 2°46.135 9.2008 3.736646 34.785979 -0.269263
2010-12-06 16:38:15 51°33.653 2°46.205 9.1569 3.733377 34.779223 -0.269263
2010-12-06 16:39:16 51°33.445 2°46.271 9.0732 3.72705 34.762291 -0.234439
2010-12-06 16:40:15 51°33.243 2°46.335 8.9562 3.716399 34.741205 -0.199615
2010-12-06 16:41:16 51°33.035 2°46.402 8.8392 3.701742 34.695935 -0.234439
2010-12-06 16:42:15 51°32.833 2°46.466 8.7604 3.691092 34.674724 -0.199615
2010-12-06 16:43:16 51°32.624 2°46.534 8.6992 3.678438 34.638116 -0.234439
2010-12-06 16:44:15 51°32.421 2°46.598 8.6745 3.673271 34.62589 -0.234439
2010-12-06 16:45:15 51°32.213 2°46.66 8.677 3.670003 34.614999 -0.199615
2010-12-06 16:46:15 51°32.006 2°46.723 8.7006 3.66937 34.59947 -0.199615
2010-12-06 16:47:15 51°31.797 2°46.784 8.7096 3.670951 34.5967 -0.234439
2010-12-06 16:48:16 51°31.584 2°46.846 8.6942 3.670635 34.59338 -0.199615
2010-12-06 16:49:15 51°31.38 2°46.91 8.6703 3.667894 34.585585 -0.199615
2010-12-06 16:50:16 51°31.17 2°47.004 8.6568 3.665785 34.580394 -0.199615
2010-12-06 16:51:15 51°30.971 2°47.105 8.6556 3.665152 34.579401 -0.234439
2010-12-06 16:52:16 51°30.765 2°47.205 8.6417 3.66589 34.591194 -0.199615
2010-12-06 16:53:15 51°30.564 2°47.307 8.5876 3.66452 34.595379 -0.199615
2010-12-06 16:54:16 51°30.357 2°47.407 8.5406 3.659459 34.592314 -0.199615
2010-12-06 16:55:16 51°30.153 2°47.503 8.5049 3.654397 34.584392 -0.234439
2010-12-06 16:56:15 51°29.951 2°47.601 8.4493 3.651024 34.590202 -0.199615
2010-12-06 16:57:15 51°29.746 2°47.699 8.4175 3.643432 34.556381 -0.164791
2010-12-06 16:58:15 51°29.542 2°47.797 8.3116 3.637527 34.539519 -0.199615
2010-12-06 16:59:16 51°29.336 2°47.895 8.1605 3.62266 34.493698 -0.199615
2010-12-06 17:00:15 51°29.135 2°47.993 7.9726 3.603155 34.431081 -0.199615
2010-12-06 17:01:16 51°28.928 2°48.092 7.7878 3.578589 34.3658 -0.164791
2010-12-06 17:02:15 51°28.726 2°48.183 7.651 3.558347 34.302859 -0.269263
2010-12-06 17:03:15 51°28.521 2°48.277 7.57 3.542111 34.248031 -0.269263
2010-12-06 17:04:15 51°28.314 2°48.368 7.5352 3.531463 34.208565 -0.234439
2010-12-06 17:05:15 51°28.107 2°48.446 7.4389 3.522713 34.16962 -0.234439
2010-12-06 17:06:16 51°27.894 2°48.526 7.378 3.508059 34.101561 -0.199615
2010-12-06 17:07:15 51°27.691 2°48.603 7.3472 3.499098 34.049355 -0.234439
2010-12-06 17:08:16 51°27.48 2°48.684 7.3146 3.492878 34.016799 -0.234439
2010-12-06 17:09:15 51°27.275 2°48.762 7.3097 3.487396 33.991364 -0.234439
2010-12-06 17:10:16 51°27.063 2°48.844 7.2714 3.485499 33.983221 -0.234439
2010-12-06 17:11:15 51°26.861 2°48.924 7.2079 3.480755 33.959947 -0.234439
2010-12-06 17:12:16 51°26.652 2°49.004 7.1458 3.469792 33.901441 -0.234439
2010-12-06 17:13:15 51°26.45 2°49.078 6.9248 3.453979 33.829824 -0.234439
2010-12-06 17:14:15 51°26.244 2°49.151 6.8279 3.416769 33.620542 -0.234439
2010-12-06 17:15:15 51°26.037 2°49.223 6.7106 3.40159 33.542415 -0.234439
2010-12-06 17:16:15 51°25.829 2°49.296 6.6227 3.38188 33.454944 -0.234439
2010-12-06 17:17:16 51°25.617 2°49.367 6.5709 3.371867 33.414708 -0.234439
2010-12-06 17:18:15 51°25.411 2°49.438 6.5218 3.3647 33.380744 -0.199615
2010-12-06 17:19:16 51°25.197 2°49.511 6.4602 3.358797 33.349009 -0.234439
2010-12-06 17:20:15 51°24.99 2°49.583 6.4202 3.35163 33.319094 -0.164791
2010-12-06 17:21:15 51°24.778 2°49.656 6.3988 3.346255 33.304743 -0.199615
2010-12-06 17:22:15 51°24.567 2°49.733 6.4106 3.344358 33.305461 -0.234439
2010-12-06 17:23:15 51°24.358 2°49.809 6.3766 3.347309 33.338072 -0.234439
2010-12-06 17:24:15 51°24.147 2°49.881 6.3353 3.345096 33.346178 -0.234439
2010-12-06 17:25:15 51°23.937 2°49.956 6.3111 3.34204 33.340788 -0.234439
2010-12-06 17:26:16 51°23.723 2°50.033 6.2943 3.33814 33.326056 -0.199615
2010-12-06 17:27:15 51°23.517 2°50.106 6.2584 3.332449 33.306519 -0.234439
2010-12-06 17:28:15 51°23.309 2°50.179 6.2162 3.326652 33.272375 -0.234439
2010-12-06 17:29:15 51°23.1 2°50.25 6.2082 3.324123 33.255194 -0.199615
2010-12-06 17:30:15 51°22.893 2°50.321 6.1572 3.320328 33.222293 -0.269263
2010-12-06 17:31:15 51°22.686 2°50.39 5.8512 3.302201 33.123814 -0.269263
2010-12-06 17:32:15 51°22.481 2°50.458 5.6995 3.247822 32.813266 -0.269263
2010-12-06 17:33:16 51°22.271 2°50.524 5.6712 3.222425 32.61228 -0.199615
2010-12-06 17:34:15 51°22.068 2°50.589 5.6881 3.2141 32.552268 -0.199615
2010-12-06 17:35:16 51°21.855 2°50.654 5.65 3.215154 32.544088 -0.234439
2010-12-06 17:36:15 51°21.647 2°50.707 5.6335 3.211782 32.539593 -0.234439
2010-12-06 17:37:16 51°21.426 2°50.719 5.6398 3.213573 32.554694 -0.234439
2010-12-06 17:38:15 51°21.21 2°50.706 5.6624 3.209991 32.55703 -0.234439
2010-12-06 17:39:15 51°20.988 2°50.695 5.6201 3.213362 32.544826 -0.234439
2010-12-06 17:40:15 51°20.763 2°50.686 5.5763 3.211887 32.568315 -0.164791
2010-12-06 17:41:15 51°20.54 2°50.679 5.1815 3.201983 32.586633 -0.199615
2010-12-06 17:42:16 51°20.316 2°50.67 5.0793 3.182491 32.681916 -0.199615
2010-12-06 17:43:15 51°20.117 2°50.758 5.0127 3.180806 32.741148 -0.164791
2010-12-06 17:44:15 51°19.926 2°50.886 4.9883 3.161418 32.593377 -0.199615
2010-12-06 17:45:15 51°19.733 2°51.009 4.9761 3.156571 32.54742 -0.199615
2010-12-06 17:46:16 51°19.535 2°51.138 4.9225 3.160154 32.572128 -0.199615
2010-12-06 17:47:15 51°19.343 2°51.265 5.04 3.156466 32.603374 -0.234439
2010-12-06 17:48:15 51°19.147 2°51.39 5.0037 3.186813 32.874831 -0.234439
2010-12-06 17:49:15 51°18.953 2°51.515 5.0264 3.182914 32.833722 -0.164791
2010-12-06 17:50:16 51°18.751 2°51.644 5.0237 3.189448 32.90063 -0.199615
2010-12-06 17:51:15 51°18.551 2°51.754 5.005 3.195243 32.958241 -0.199615
2010-12-06 17:52:15 51°18.345 2°51.859 4.9615 3.197562 33.004574 -0.234439
2010-12-06 17:53:15 51°18.137 2°51.957 4.9735 3.196087 33.054289 -0.199615
2010-12-06 17:54:15 51°17.928 2°52.058 4.9926 3.21084 33.185955 -0.164791
2010-12-06 17:55:16 51°17.718 2°52.166 4.9015 3.223381 33.333967 -0.199615
2010-12-06 17:56:15 51°17.514 2°52.272 4.8416 3.212633 33.291036 -0.269263
2010-12-06 17:57:16 51°17.302 2°52.376 4.7343 3.198407 33.186131 -0.234439
2010-12-06 17:58:15 51°17.099 2°52.482 4.73 3.183023 33.110394 -0.269263
2010-12-06 17:59:15 51°16.89 2°52.587 4.6706 3.172169 33.021107 -0.234439
2010-12-06 18:00:15 51°16.682 2°52.692 4.6403 3.159314 32.911214 -0.164791
2010-12-06 18:01:15 51°16.472 2°52.794 4.5523 3.152571 32.856038 -0.164791
2010-12-06 18:02:15 51°16.262 2°52.893 4.5503 3.128652 32.641554 -0.199615
2010-12-06 18:03:15 51°16.064 2°52.983 4.4774 3.114112 32.522878 -0.199615
2010-12-06 18:04:15 51°15.925 2°53.035 4.4259 3.097887 32.38533 -0.199615
2010-12-06 18:05:15 51°15.808 2°53.07 4.4977 3.091355 32.336462 -0.164791
2010-12-06 18:06:15 51°15.698 2°53.106 4.4671 3.09736 32.366319 -0.164791
2010-12-06 18:07:15 51°15.585 2°53.18 4.4171 3.095569 32.361105 -0.164791
2010-12-06 18:08:15 51°15.453 2°53.313 4.3688 3.080925 32.263049 -0.164791
2010-12-06 18:09:15 51°15.324 2°53.45 4.47 3.075341 32.194944 -0.164791
2010-12-06 18:10:15 51°15.215 2°53.596 12.093 3.085771 32.241803 -0.129967
2010-12-06 18:11:16 51°15.102 2°53.776 9.2123 1.600935 15.616153 -0.408559
2010-12-06 18:12:15 51°14.971 2°53.997 7.7938 1.59894 15.599555 -0.443383
2010-12-06 18:13:16 51°14.848 2°54.238 7.7376 1.595056 15.562108 -0.443383
2010-12-06 18:14:15 51°14.757 2°54.468 8.0978 1.593272 15.533765 -0.443383
2010-12-06 18:15:16 51°14.667 2°54.711 8.2514 1.595056 15.537076 -0.443383
2010-12-06 18:16:15 51°14.556 2°54.95 8.3709 1.595686 15.536365 -0.478207
2010-12-06 18:17:16 51°14.403 2°55.151 8.411 1.594951 15.531461 -0.408559
2010-12-06 18:18:19 51°14.24 2°55.323 8.5143 1.595371 15.533035 -0.478207
2010-12-06 18:19:19 51°14.112 2°55.423 8.6404 1.596 15.522106 -0.443383
2010-12-06 18:20:19 51°13.995 2°55.505 8.7228 1.59768 15.532487 -0.408559
2010-12-06 18:21:18 51°13.886 2°55.586 8.8713 1.59852 15.527058 -0.408559
2010-12-06 18:22:17 51°13.8 2°55.662 8.9821 1.600094 15.521642 -0.408559
2010-12-06 18:23:16 51°13.731 2°55.759 9.1134 1.601563 15.527755 -0.408559
2010-12-06 18:24:15 51°13.692 2°55.851 9.2468 1.603348 15.539212 -0.443383
2010-12-06 18:25:15 51°13.666 2°55.947 9.3639 1.604607 15.534965 -0.408559
2010-12-06 18:26:15 51°13.664 2°55.952 9.6091 1.606392 15.528125 -0.408559